Content
SEND FEEDBACK

Daily
Averages
Monthly
Summary
United States of America

ASATDAS, GUAM


Home > North America > United States > Guam
Elevation: 186 meters     Latitude: 13 35N     Longitude: 144 56E

WEATHER
 
SELECT A DAY
Number of Records: 206,838;   Date Range: 1/1/95 - 4/16/14
 
SHARE

PRINT THIS DATA

[ ← Previous Day ]
WEATHER ALMANAC - 8 FEBRUARY, 2013
[ Next Day → ]
[ °F ]   °C
Weather ElementAverageHighLow
Temperature26.8 °C29 °C (12:20 pm)25 °C (4:54 am)
Dewpoint22.3 °C23.3 °C (2:54 am)21.1 °C (7:54 pm)
Humidity76.5 %88 % (4:54 am)65 % (1:54 pm)
Barometer1012.2 hPa1014.2 hPa (10:15 am)1010.5 hPa (3:54 am)
Wind Speed17.4 km/h25.9 km/h (10:54 am)
Wind Gust35.2 km/h (10:15 am)
Weather ElementAverage
Visibility16.1 km
Wind DirectionE (91.6 °)

Weather ElementTotal
Precipitation---
Cooling Degree Days8.7 (Base 18.3)
Growing Degree Days17 (Base 10)
Averaged from 32 records on 8 February, 2013
WEATHER CONDITIONS BREAKOUT
WIND DIRECTION BREAKOUT
WEATHER BY HOUR - 8 FEBRUARY, 2013
[ °F ]   °C
Local TimeTemperatureDewpointHumidityBarometerVisibilityWind DirectionWind SpeedGust SpeedPrecipitationEventsConditions
1:54 AM25.6 °C22.8 °C84 %1010.8 hPa16.1 kmEast (90°)14.8 km/hClear
2:38 AM26 °C23 °C83 %1011.5 hPa16.1 kmEast (90°)16.7 km/hMostly Cloudy
2:50 AM26 °C23 °C83 %1011.5 hPa16.1 kmEast (90°)14.8 km/hScattered Clouds
2:54 AM25.6 °C23.3 °C87 %1010.8 hPa16.1 kmEast (100°)16.7 km/hMostly Cloudy
3:54 AM25.6 °C22.8 °C84 %1010.5 hPa16.1 kmEast (100°)18.5 km/hScattered Clouds
4:16 AM26 °C23 °C83 %1011.5 hPa16.1 kmEast (90°)11.1 km/hMostly Cloudy
4:28 AM26 °C23 °C83 %1011.5 hPa16.1 kmEast (90°)14.8 km/hScattered Clouds
4:54 AM25 °C22.8 °C88 %1010.8 hPa16.1 kmEast (100°)14.8 km/hPartly Cloudy
5:54 AM25.6 °C22.8 °C84 %1011.2 hPa16.1 kmEast (100°)16.7 km/hPartly Cloudy
6:54 AM25.6 °C22.2 °C81 %1012.2 hPa16.1 kmEast (90°)13 km/hPartly Cloudy
7:54 AM26.1 °C22.2 °C79 %1012.9 hPa16.1 kmEast (100°)16.7 km/hPartly Cloudy
8:54 AM26.7 °C22.2 °C76 %1013.2 hPa16.1 kmEast (90°)20.4 km/h29.6 km/hScattered Clouds
9:54 AM27.8 °C22.8 °C74 %1013.5 hPa16.1 kmESE (110°)20.4 km/hScattered Clouds
10:15 AM28 °C22 °C70 %1014.2 hPa16.1 kmEast (100°)18.5 km/h35.2 km/hMostly Cloudy
10:31 AM28 °C22 °C70 %1014.2 hPa16.1 kmEast (90°)24.1 km/hScattered Clouds
10:54 AM27.8 °C22.2 °C71 %1013.5 hPa16.1 kmEast (80°)25.9 km/hMostly Cloudy
11:54 AM28.3 °C22.2 °C69 %1012.9 hPa16.1 kmEast (80°)22.2 km/h31.5 km/hMostly Cloudy
12:20 PM29 °C22 °C66 %1012.9 hPa16.1 kmEast (100°)24.1 km/hScattered Clouds
12:54 PM28.3 °C22.2 °C69 %1011.9 hPa16.1 kmESE (110°)22.2 km/h33.3 km/hScattered Clouds
1:54 PM28.9 °C21.7 °C65 %1011.2 hPa16.1 kmEast (100°)18.5 km/h31.5 km/hScattered Clouds
2:54 PM28.9 °C22.2 °C67 %1010.5 hPa16.1 kmEast (80°)22.2 km/h33.3 km/hScattered Clouds
3:49 PM28 °C22 °C70 %1011.5 hPa16.1 kmEast (90°)22.2 km/hMostly Cloudy
3:54 PM27.8 °C22.2 °C71 %1010.5 hPa16.1 kmEast (100°)20.4 km/hMostly Cloudy
4:06 PM28 °C22 °C70 %1011.2 hPa16.1 kmEast (90°)20.4 km/hMostly Cloudy
4:54 PM27.2 °C22.2 °C74 %1011.2 hPa16.1 kmEast (90°)18.5 km/hScattered Clouds
5:54 PM26.7 °C21.7 °C74 %1011.5 hPa16.1 kmEast (80°)14.8 km/hPartly Cloudy
6:54 PM26.1 °C21.7 °C77 %1012.2 hPa16.1 kmEast (80°)16.7 km/hPartly Cloudy
7:54 PM25.6 °C21.1 °C76 %1012.9 hPa16.1 kmEast (90°)11.1 km/hPartly Cloudy
8:54 PM25.6 °C21.7 °C79 %1013.2 hPa16.1 kmEast (80°)11.1 km/hPartly Cloudy
9:54 PM26.1 °C22.2 °C79 %1013.5 hPa16.1 kmEast (80°)11.1 km/hPartly Cloudy
10:54 PM25.6 °C22.2 °C81 %1013.2 hPa16.1 kmEast (80°)11.1 km/hPartly Cloudy
11:54 PM25.6 °C22.2 °C81 %1012.9 hPa16.1 kmEast (90°)11.1 km/hPartly Cloudy
Hourly data recorded from PGUM, located 17.22 kilometers away from Asatdas, Guam







STORIES FROM OUR PARTNERS